Aeroporto :
LOGIN :

Iscrizione | Disclaimer

   EN    FR    IT 

 










Sommario :    VFR   VFR Marginale   IFR   IFR Intensivo   IFR Molto Intensivo
Visibilità : 
Base nubi : 
>= 8 km
>= 3000ft
5 / 8 km
1000 / 3000 ft
1500m / 5 km
500 / 1000 ft
800 / 1500m
200 / 500 ft
< 800m
< 200 ft
Simboli :   Temporali  Nebbia  Neve Forte  Precipitazioni Forti  Vento > 20 kt
SIGMETs :   Varie  Temporali  Ghiacco  Turbolenza  Onda orograficha  Ceneri Vulcaniche







- Altitudine del aeroporto : 80 ft
- Codice IATA : LPL
- Carte del aeroporto


EGGP - Liverpool John Lennon

ULTIMO METAR :
  • 172020Z 15006KT 9999 SCT030 17/15 Q1009

METARs OBSOLETI :
  • 171950Z 16006KT 130V200 9999 FEW026 SCT036 16/15 Q1009
  • 171920Z 15006KT 9999 FEW018 SCT035 17/15 Q1009
  • 171850Z 16007KT 9999 FEW018 BKN046 17/15 Q1010
  • 171820Z 18008KT 150V220 9999 FEW018 BKN038 17/15 Q1010
  • 171750Z 17006KT 130V200 9999 FEW018 BKN038 17/15 Q1010

TAF TAF EGGP
Valido dal 17 a 18 ore il 18 a 18 ore UTC


171652Z 1718/1818 20008KT 9999 FEW025
TEMPO 1718/1803 7000 RA BKN012
BECMG 1803/1806 30010KT
ATIS : +44 151 907 2000 (option 5 or ext 5150)
Met : +44 871 750 5150
Nessun NOTAM noto per questo aeroporto.



MetMap, La meteo Aeronautica in un colpo d'occhio ! - Copyright ORBIFLY Dicembre 2007 - Disclaimer

ORBIFLY MET'MAP TEAM :

Programmazione e sviluppo : Alexandra Zaïnal
Concezione e sviluppo : Baudouin d'Aumeries
Co-Programmazione e sviluppo : Marc-Olivier Méhu
Supporto tecnico e logistico : Manuel Goepfert
Aiuto per la traduzione : Arnaldo La Scala

Contatto : metmap@orbifly.com




FONTI E CREDITI :

   NOAA